Location: Baumgarten
(49.0970°N, 12.7493°E)
Time: 18:31:31
(UTC+00:00)

Cosmos 1825 - Pass Details

Date: 05 July 2020
Orbit: 502 x 509 km, 82.5° (Epoch: 11 August)

Event Time Altitude Azimuth Distance (km) Brightness Sun altitude
Exits shadow 21:58:07 34° 147° (SSE) 847 2.7 -16.3°
Maximum altitude 21:59:20 50° 95° (E) 658 2.5 -16.3°
Drops below altitude 10° 22:03:01 10° 20° (NNE) 1,739 5.7 -16.5°
Sets 22:05:12 0° 15° (NNE) 2,630 6.8 -16.6°
